Printer-friendly version
Follow the MPC on Twitter Follow the MPC on Facebook The MPC blog
Minor Planet Center

MPEC 2006-A55 : 2006 AE3

The following Minor Planet Electronic Circular may be linked-to from your own Web pages, but must not otherwise be redistributed electronically.

A form allowing access to any MPEC is at the bottom of this page.


Read MPEC 2006-A54 Read MPEC 2006-A56


M.P.E.C. 2006-A55                                Issued 2006 Jan. 10, 16:31 UT

     The Minor Planet Electronic Circulars contain information on unusual
         minor planets and routine data on comets.  They are published
   on behalf of Commission 20 of the International Astronomical Union by the
          Minor Planet Center, Smithsonian Astrophysical Observatory,
                          Cambridge, MA 02138, U.S.A.

                  Supported in part by the Brinson Foundation
                  Supported in part by the TABASGO Foundation
             Prepared using the Tamkin Foundation Computer Network

                              MPC@CFA.HARVARD.EDU
          URL http://cfa-www.harvard.edu/iau/mpc.html  ISSN 1523-6714

                                   2006 AE3

Observations:
     K06A03E* C2006 01 06.31075 07 49 15.45 +18 40 06.6          20.9 V EA055G96
     K06A03E  C2006 01 06.31653 07 49 14.98 +18 40 21.3          22.1 V EA055G96
     K06A03E  C2006 01 06.32227 07 49 14.55 +18 40 35.8          20.8 V EA055G96
     K06A03E  C2006 01 06.32800 07 49 14.12 +18 40 48.3          20.7 V EA055G96
     K06A03E  C2006 01 07.36002 07 47 56.25 +19 22 19.5          20.9 V EA055G96
     K06A03E  C2006 01 07.36091 07 47 56.18 +19 22 21.3          20.9 V EA055G96
     K06A03E  C2006 01 07.36179 07 47 56.11 +19 22 23.7          20.8 V EA055G96
     K06A03E  C2006 01 07.36267 07 47 56.04 +19 22 25.8          21.0 V EA055G96
     K06A03E  C2006 01 07.39721 07 47 53.30 +19 23 49.0          20.8 V EA055G96
     K06A03E  C2006 01 07.39775 07 47 53.23 +19 23 50.3          20.8 V EA055G96
     K06A03E  C2006 01 07.39829 07 47 53.19 +19 23 51.4          20.8 V EA055G96
     K06A03E  C2006 01 07.39882 07 47 53.12 +19 23 52.8          20.7 V EA055G96
     K06A03E  C2006 01 10.30212 07 44 05.46 +21 22 04.0          20.4 V EA055G96
     K06A03E  C2006 01 10.30865 07 44 04.92 +21 22 20.1          20.3 V EA055G96
     K06A03E  C2006 01 10.31516 07 44 04.34 +21 22 36.0          20.8 V EA055G96
     K06A03E  C2006 01 10.32168 07 44 03.80 +21 22 52.3          20.8 V EA055G96

Observer details:
G96 Mt. Lemmon Survey.  Observers E. J. Christensen, R. Hill.  Measurers
    E. C. Beshore, E. J. Christensen, G. J. Garradd, A. D. Grauer, R. E. Hill,
    R. A. Kowalski, S. M. Larson, R. H. McNaught.  1.5-m reflector + CCD.

Orbital elements:
2006 AE3
Epoch 2006 Jan. 5.0 TT = JDT 2453740.5                  MPC
M 352.73288              (2000.0)            P               Q
n   0.21045673     Peri.   13.02690     -0.51754768     -0.58725785
a   2.7991586      Node   111.83009     +0.71260010     -0.69841735
e   0.3325866      Incl.   42.09680     +0.47365124     +0.40907385
P   4.68           H   19.3           G   0.15
From 16 observations 2006 Jan. 6-10.

Ephemeris:
2006 AE3                 a,e,i = 2.80, 0.33, 42                  q = 1.8682
Date    TT    R. A. (2000) Decl.     Delta      r     Elong.  Phase     V
2006 01 05    07 50.86   +17 47.9    0.912    1.885   167.7     6.4    21.0
2006 01 15    07 37.56   +24 35.0    0.894    1.877   176.1     2.1    20.7
2006 01 25    07 23.03   +31 11.3    0.913    1.871   160.9     9.9    21.1
2006 02 04    07 09.76   +36 55.0    0.966    1.868   146.5    16.9    21.5
2006 02 14    07 00.20   +41 27.7    1.045    1.869   133.7    22.5    21.8

Timothy B. Spahr             (C) Copyright 2006 MPC           M.P.E.C. 2006-A55

Read MPEC 2006-A54 Read MPEC 2006-A56


MPEC number:

Enter an MPEC number in one of the following forms:

  • 1997-B01 (the full form)
  • J97B01 (the packed version of the full form)
  • B01 (the abbreviated form)

Valid HTML 4.01!